Grand Junction, CO

4:32 AM MDT on September 15, 2019 (GMT -0600)
Walker

Weather History for KGJT - August, 2019

Change the Weather History Date:

Wednesday, August 21, 2019

  Actual Average Record
Temperature  
Mean Temperature 79 °F 75 °F  
Max Temperature 99 °F 89 °F 99 °F (2019)
Min Temperature 59 °F 61 °F 47 °F (1924)
Degree Days  
Heating Degree Days 0 0  
Month to date heating degree days 0 0  
Since 1 June heating degree days 25 23  
Since 1 July heating degree days 0 1  
Cooling Degree Days 14 10  
Month to date cooling degree days 302 242  
Year to date cooling degree days 987 934  
Since 1 June cooling degree days 975 883  
Growing Degree Days 30 (Base 50)    
Moisture  
Dew Point 30 °F    
Average Humidity 20    
Maximum Humidity 32    
Minimum Humidity 8    
Precipitation  
Precipitation 0.00 in 0.03 in 0.93 in (1921)
Month to date precipitation 0.14 0.62  
Year to date precipitation 6.86 5.52  
Snow  
Snow 0.00 in 0.00 in T in (2015)
Month to date snowfall 0.0 0.0  
Since 1 June snowfall 0.0 0.0  
Since 1 July snowfall 0.0 0.0  
Snow Depth 0.00 in    
Sea Level Pressure  
Sea Level Pressure 29.80 in    
Wind  
Wind Speed 9 mph (ESE)    
Max Wind Speed 21 mph    
Max Gust Speed 28 mph    
Visibility 10 miles    
Events      
T = Trace of Precipitation, MM = Missing Value Source: NWS Daily Summary

Daily Weather History Graph

Daily Weather History Graph

Search for Another Location

Airport or City:

Astronomy

Aug. 21, 2019 Rise Set
Actual Time 6:32 AM MDT 8:01 PM MDT
Civil Twilight 6:04 AM MDT 8:29 PM MDT
Nautical Twilight 5:30 AM MDT 9:02 PM MDT
Astronomical Twilight 4:54 AM MDT 9:38 PM MDT
Moon 11:23 PM MDT (8/21) 12:09 PM MDT (8/21)
Length of Visible Light 14h 24m
Length of Day
13h 28m
Waning Gibbous, 68% of the Moon is Illuminated
Aug 21
Waning Gibbous
Aug 23
Last Quarter
Aug 30
New
Sep 5
First Quarter
Sep 13
Full

Hourly Weather History & Observations

Time (MDT) Temp. Dew Point Humidity Pressure Visibility Wind Dir Wind Speed Gust Speed Precip Events Conditions
12:53 AM 70.0 °F 28.0 °F 21% 29.84 in 10.0 mi East 3.5 mph - N/A   Clear
1:53 AM 66.9 °F 30.9 °F 26% 29.83 in 10.0 mi ESE 8.1 mph - N/A   Clear
2:53 AM 72.0 °F 28.0 °F 20% 29.81 in 10.0 mi East 11.5 mph - N/A   Clear
3:53 AM 66.0 °F 30.0 °F 26% 29.84 in 10.0 mi SE 10.4 mph - N/A   Clear
4:53 AM 64.9 °F 28.9 °F 26% 29.85 in 10.0 mi ESE 4.6 mph - N/A   Clear
5:53 AM 61.0 °F 30.9 °F 32% 29.88 in 10.0 mi SE 4.6 mph - N/A   Clear
6:53 AM 63.0 °F 30.0 °F 29% 29.88 in 10.0 mi SE 10.4 mph - N/A   Clear
7:53 AM 68.0 °F 32.0 °F 26% 29.91 in 10.0 mi ESE 12.7 mph - N/A   Clear
8:53 AM 75.0 °F 34.0 °F 22% 29.90 in 10.0 mi SE 9.2 mph - N/A   Clear
9:53 AM 79.0 °F 34.0 °F 20% 29.91 in 10.0 mi SSE 11.5 mph - N/A   Clear
10:53 AM 82.0 °F 34.0 °F 18% 29.90 in 10.0 mi South 8.1 mph - N/A   Clear
11:53 AM 88.0 °F 35.1 °F 15% 29.88 in 10.0 mi SSE 9.2 mph - N/A   Clear
12:53 PM 91.9 °F 35.1 °F 13% 29.83 in 10.0 mi ESE 4.6 mph - N/A   Clear
1:53 PM 93.9 °F 34.0 °F 12% 29.80 in 10.0 mi Variable 4.6 mph - N/A   Clear
2:53 PM 97.0 °F 28.0 °F 9% 29.75 in 10.0 mi West 6.9 mph - N/A   Clear
3:53 PM 98.1 °F 28.0 °F 8% 29.73 in 10.0 mi NW 11.5 mph - N/A   Clear
4:53 PM 98.1 °F 28.9 °F 9% 29.70 in 10.0 mi WNW 16.1 mph 24.2 mph N/A   Clear
5:53 PM 97.0 °F 28.0 °F 9% 29.70 in 10.0 mi NW 13.8 mph 19.6 mph N/A   Clear
6:53 PM 95.0 °F 27.0 °F 9% 29.68 in 10.0 mi NW 10.4 mph - N/A   Clear
7:53 PM 88.0 °F 28.0 °F 12% 29.69 in 10.0 mi NW 6.9 mph - N/A   Clear
8:53 PM 81.0 °F 25.0 °F 13% 29.71 in 10.0 mi Calm Calm - N/A   Clear
9:53 PM 78.1 °F 25.0 °F 14% 29.71 in 10.0 mi East 4.6 mph - N/A   Clear
10:53 PM 77.0 °F 30.0 °F 18% 29.71 in 10.0 mi East 9.2 mph - N/A   Clear
11:53 PM 80.1 °F 33.1 °F 18% 29.71 in 10.0 mi East 15.0 mph - N/A   Clear